When you browse on this site, cookies collect data to enhance your experience and personalize the content and advertising you see.
Visit our Privacy Policy to learn more. By continuing to use the site, you agree to this use of cookies and data.
  • In United Kingdom
  • List of Countries
  • For 7 days
  • Water Temperature
  • Weather Map
  • Weather Widgets
  • user-avatar
    Login

    Hourly Weather Deleni

    Today, 17 September, Tuesday

    Time Temperature Precipitation Wind Pressure Humidity
    00:00 +17°C° 0 mm 2 mps 744 mmHg 59%
    01:00 +17°C° 0 mm 2 mps 744 mmHg 62%
    02:00 +16°C° 0 mm 2 mps 744 mmHg 66%
    03:00 +16°C° 0.1 mm 2 mps 744 mmHg 72%
    04:00 +15°C° 0.1 mm 2 mps 743 mmHg 79%
    05:00 +15°C° 0.1 mm 2 mps 743 mmHg 85%
    06:00 +15°C° 0.1 mm 1 mps 743 mmHg 85%
    07:00 +15°C° 0.1 mm 1 mps 743 mmHg 86%
    08:00 +15°C° 0.1 mm 1 mps 744 mmHg 86%
    09:00 +15°C° 0.4 mm 2 mps 744 mmHg 87%
    10:00 +14°C° 0.4 mm 2 mps 744 mmHg 88%
    11:00 +14°C° 0.4 mm 2 mps 744 mmHg 89%
    12:00 +14°C° 0.4 mm 2 mps 743 mmHg 88%
    13:00 +14°C° 0.4 mm 2 mps 743 mmHg 87%
    14:00 +14°C° 0.4 mm 1 mps 743 mmHg 86%
    15:00 +14°C° 0 mm 1 mps 742 mmHg 82%
    16:00 +15°C° 0 mm 1 mps 742 mmHg 78%
    17:00 +16°C° 0 mm 1 mps 742 mmHg 75%
    18:00 +15°C° 0 mm 1 mps 742 mmHg 80%
    19:00 +14°C° 0 mm 1 mps 742 mmHg 86%
    20:00 +12°C° 0 mm 1 mps 742 mmHg 91%
    21:00 +12°C° 0 mm 1 mps 741 mmHg 91%
    22:00 +12°C° 0 mm 1 mps 741 mmHg 92%
    23:00 +12°C° 0 mm 2 mps 741 mmHg 92%

    Tomorrow, 18 September, Wednesday

    Time Temperature Precipitation Wind Pressure Humidity
    00:00 +13°C° 0 mm 2 mps 740 mmHg 89%
    01:00 +13°C° 0 mm 2 mps 740 mmHg 86%
    02:00 +14°C° 0 mm 2 mps 740 mmHg 83%
    03:00 +13°C° 0 mm 3 mps 740 mmHg 82%
    04:00 +12°C° 0 mm 3 mps 740 mmHg 80%
    05:00 +12°C° 0 mm 4 mps 741 mmHg 78%
    06:00 +12°C° 0 mm 4 mps 741 mmHg 72%
    07:00 +12°C° 0 mm 5 mps 742 mmHg 67%
    08:00 +10°C° 0 mm 6 mps 743 mmHg 62%
    09:00 +11°C° 0 mm 6 mps 743 mmHg 54%
    10:00 +13°C° 0 mm 6 mps 744 mmHg 47%
    11:00 +13°C° 0 mm 6 mps 744 mmHg 40%
    12:00 +15°C° 0 mm 6 mps 744 mmHg 35%
    13:00 +16°C° 0 mm 7 mps 745 mmHg 31%
    14:00 +18°C° 0 mm 8 mps 745 mmHg 26%
    15:00 +17°C° 0 mm 8 mps 745 mmHg 30%
    16:00 +16°C° 0 mm 8 mps 745 mmHg 35%
    17:00 +15°C° 0 mm 8 mps 746 mmHg 39%
    18:00 +12°C° 0 mm 7 mps 747 mmHg 44%
    19:00 +10°C° 0 mm 6 mps 747 mmHg 50%
    20:00 +10°C° 0 mm 4 mps 748 mmHg 55%
    21:00 +8°C° 0 mm 4 mps 749 mmHg 57%
    22:00 +7°C° 0 mm 4 mps 749 mmHg 59%
    23:00 +8°C° 0 mm 3 mps 749 mmHg 61%

    Day after tomorrow, 19 September, Thursday

    Time Temperature Precipitation Wind Pressure Humidity
    00:00 +7°C° 0 mm 3 mps 749 mmHg 61%
    01:00 +7°C° 0 mm 3 mps 750 mmHg 62%
    02:00 +7°C° 0 mm 2 mps 750 mmHg 62%
    03:00 +6°C° 0 mm 2 mps 750 mmHg 63%
    04:00 +6°C° 0 mm 2 mps 750 mmHg 63%
    05:00 +6°C° 0 mm 2 mps 750 mmHg 64%
    06:00 +7°C° 0 mm 2 mps 750 mmHg 57%
    07:00 +9°C° 0 mm 2 mps 750 mmHg 50%
    08:00 +12°C° 0 mm 2 mps 750 mmHg 43%
    09:00 +14°C° 0 mm 2 mps 750 mmHg 41%
    10:00 +16°C° 0 mm 2 mps 749 mmHg 38%
    11:00 +17°C° 0 mm 2 mps 749 mmHg 35%
    12:00 +18°C° 0 mm 2 mps 749 mmHg 34%
    13:00 +18°C° 0 mm 2 mps 749 mmHg 32%
    14:00 +18°C° 0 mm 2 mps 748 mmHg 31%
    15:00 +18°C° 0 mm 3 mps 748 mmHg 34%
    16:00 +17°C° 0 mm 3 mps 748 mmHg 36%
    17:00 +17°C° 0 mm 3 mps 748 mmHg 38%
    18:00 +14°C° 0 mm 3 mps 748 mmHg 46%
    19:00 +12°C° 0 mm 3 mps 749 mmHg 54%
    20:00 +10°C° 0 mm 3 mps 749 mmHg 62%
    21:00 +9°C° 0 mm 3 mps 749 mmHg 67%
    22:00 +9°C° 0 mm 2 mps 749 mmHg 71%
    23:00 +8°C° 0 mm 2 mps 750 mmHg 75%

    20 September, Friday

    Time Temperature Precipitation Wind Pressure Humidity
    00:00 +8°C° 0 mm 2 mps 750 mmHg 75%
    01:00 +7°C° 0 mm 2 mps 750 mmHg 75%
    02:00 +7°C° 0 mm 2 mps 750 mmHg 76%
    03:00 +6°C° 0 mm 2 mps 750 mmHg 76%
    04:00 +6°C° 0 mm 2 mps 750 mmHg 77%
    05:00 +5°C° 0 mm 2 mps 750 mmHg 77%
    06:00 +7°C° 0 mm 3 mps 750 mmHg 73%
    07:00 +7°C° 0 mm 5 mps 750 mmHg 69%
    08:00 +9°C° 0 mm 7 mps 750 mmHg 65%
    09:00 +10°C° 0 mm 7 mps 750 mmHg 57%
    10:00 +11°C° 0 mm 7 mps 750 mmHg 48%
    11:00 +13°C° 0 mm 8 mps 750 mmHg 39%
    12:00 +13°C° 0 mm 8 mps 750 mmHg 35%
    13:00 +15°C° 0 mm 8 mps 750 mmHg 32%
    14:00 +15°C° 0 mm 8 mps 749 mmHg 28%
    15:00 +13°C° 0 mm 8 mps 749 mmHg 30%
    16:00 +13°C° 0 mm 8 mps 749 mmHg 32%
    17:00 +12°C° 0 mm 8 mps 749 mmHg 34%
    18:00 +11°C° 0 mm 6 mps 750 mmHg 40%
    19:00 +9°C° 0 mm 5 mps 751 mmHg 47%
    20:00 +8°C° 0 mm 3 mps 751 mmHg 54%
    21:00 +7°C° 0 mm 4 mps 751 mmHg 57%
    22:00 +7°C° 0 mm 4 mps 752 mmHg 60%
    23:00 +6°C° 0 mm 4 mps 752 mmHg 63%

    21 September, Saturday

    Time Temperature Precipitation Wind Pressure Humidity
    00:00 +6°C° 0 mm 4 mps 752 mmHg 65%
    01:00 +5°C° 0 mm 4 mps 752 mmHg 67%
    02:00 +5°C° 0 mm 4 mps 752 mmHg 69%
    03:00 +5°C° 0 mm 4 mps 752 mmHg 72%
    04:00 +4°C° 0 mm 4 mps 753 mmHg 75%
    05:00 +4°C° 0 mm 3 mps 753 mmHg 77%
    06:00 +5°C° 0 mm 4 mps 753 mmHg 72%
    07:00 +6°C° 0 mm 4 mps 754 mmHg 67%
    08:00 +7°C° 0 mm 5 mps 754 mmHg 61%
    09:00 +9°C° 0 mm 5 mps 754 mmHg 54%
    10:00 +10°C° 0 mm 6 mps 754 mmHg 46%
    11:00 +13°C° 0 mm 6 mps 755 mmHg 38%
    12:00 +14°C° 0 mm 6 mps 754 mmHg 35%
    13:00 +15°C° 0 mm 5 mps 754 mmHg 32%
    14:00 +15°C° 0 mm 5 mps 754 mmHg 29%
    15:00 +15°C° 0 mm 5 mps 754 mmHg 30%
    16:00 +15°C° 0 mm 4 mps 753 mmHg 31%
    17:00 +14°C° 0 mm 4 mps 753 mmHg 31%
    18:00 +12°C° 0 mm 3 mps 754 mmHg 37%
    19:00 +10°C° 0 mm 2 mps 754 mmHg 43%
    20:00 +9°C° 0 mm 1 mps 755 mmHg 49%
    21:00 +9°C° 0 mm 1 mps 755 mmHg 50%
    22:00 +9°C° 0 mm 1 mps 755 mmHg 51%
    23:00 +8°C° 0 mm 1 mps 755 mmHg 52%

    22 September, Sunday

    Time Temperature Precipitation Wind Pressure Humidity
    00:00 +8°C° 0 mm 1 mps 755 mmHg 54%
    01:00 +7°C° 0 mm 1 mps 755 mmHg 56%
    02:00 +7°C° 0 mm 1 mps 755 mmHg 58%
    03:00 +7°C° 0 mm 1 mps 755 mmHg 58%
    04:00 +6°C° 0 mm 1 mps 755 mmHg 59%
    05:00 +6°C° 0 mm 1 mps 755 mmHg 59%
    06:00 +8°C° 0 mm 1 mps 755 mmHg 54%
    07:00 +9°C° 0 mm 1 mps 755 mmHg 49%
    08:00 +11°C° 0 mm 1 mps 755 mmHg 44%
    09:00 +13°C° 0 mm 1 mps 755 mmHg 40%
    10:00 +15°C° 0 mm 2 mps 755 mmHg 36%
    11:00 +17°C° 0 mm 2 mps 755 mmHg 32%
    12:00 +18°C° 0 mm 2 mps 755 mmHg 31%
    13:00 +19°C° 0 mm 2 mps 754 mmHg 30%
    14:00 +20°C° 0 mm 2 mps 754 mmHg 29%
    15:00 +20°C° 0 mm 2 mps 754 mmHg 30%
    16:00 +20°C° 0 mm 2 mps 753 mmHg 32%
    17:00 +20°C° 0 mm 2 mps 753 mmHg 33%
    18:00 +18°C° 0 mm 2 mps 754 mmHg 40%
    19:00 +15°C° 0 mm 1 mps 754 mmHg 47%
    20:00 +13°C° 0 mm 1 mps 754 mmHg 53%
    21:00 +12°C° 0 mm 1 mps 755 mmHg 55%
    22:00 +12°C° 0 mm 1 mps 755 mmHg 57%
    23:00 +12°C° 0 mm 1 mps 755 mmHg 58%
    Show more